Location: Sungai Jaoh
(2.9167°N, 113.9167°E)
Time: 16:00:30
(UTC+00:00)

USA 281 - Pass Details

Date: 30 November 2020
Orbit: 1074 x 1084 km, 106.0° (Epoch: 22 January)

Event Time Altitude Azimuth Distance (km) Brightness Sun altitude
Rises 12:33:50 0° 171° (S) 3,883 6.3 -33.6°
Reaches altitude 10° 12:36:26 10° 176° (S) 2,925 5.7 -34.2°
Maximum altitude 12:42:45 51° 250° (WSW) 1,335 3.9 -35.6°
Drops below altitude 10° 12:49:05 10° 325° (NW) 2,914 5.5 -37.0°
Sets 12:51:40 0° 330° (NNW) 3,867 6.2 -37.6°
